Location: Oso Ridge
(35.0450°N, 108.0864°W)
Time: 21:49:36
(UTC-07:00)

Amateur Radio Satellites - All Passes

Search period start: 29 January 2015 21:19
Search period end: 30 January 2015 21:19
Location: Oso Ridge, 35.0450°N, 108.0864°W

Satellite Date Start Highest point End Downlink Frequencies (MHz)
Time Altitude Azimuth
GOMX 1 29 Jan 21:23:28 21:27:38 25° 268° (W) 21:31:54 467.674
JUGNU 29 Jan 21:24:09 21:26:18 12° 193° (SSW) 21:28:21 437.505
UWE-3 29 Jan 21:25:11 21:29:50 73° 76° (ENE) 21:34:34 435.000/436.395/437.385
AISAT 29 Jan 21:25:31 21:29:10 26° 71° (ENE) 21:32:56 437.250
ESTCUBE 1 29 Jan 21:32:10 21:34:02 13° 67° (ENE) 21:36:08 437.505/2401.250
BRITE-PL 29 Jan 21:32:43 21:35:37 15° 272° (W) 21:38:20 437.365/2234.400
DOVE 4 29 Jan 21:32:46 21:37:03 27° 267° (W) 21:41:25 437.250
CUTE 1.7 + AOD 2 29 Jan 21:35:22 21:37:42 14° 269° (W) 21:39:48 437.475
Oscar 11 29 Jan 21:36:34 21:40:45 45° 261° (W) 21:44:55 145.826/435.025
ISS 29 Jan 21:37:28 21:40:40 55° 320° (NW) 21:43:54 145.825
TIGRISAT 29 Jan 21:41:13 21:42:11 11° 89° (E) 21:43:26 435.000
VELOX 1 29 Jan 21:52:45 21:57:03 52° 74° (ENE) 22:01:24 145.980
50 SAT 29 Jan 21:57:03 22:01:04 53° 75° (ENE) 22:05:07 437.505
QB50P2 29 Jan 21:59:39 22:00:05 10° 89° (E) 22:00:51 145.880/145.840
CUBEBUG 1 29 Jan 22:00:13 22:03:39 24° 71° (ENE) 22:07:11 437.445
YUBILEINY 29 Jan 22:01:19 22:05:24 13° 299° (WNW) 22:08:48 435.215
SRMSAT 29 Jan 22:04:17 22:07:40 15° 189° (S) 22:10:59 437.500
QB50P1 29 Jan 22:07:22 22:09:20 13° 91° (E) 22:11:32 145.935-145.965
UKube-1 29 Jan 22:12:40 22:16:31 30° 263° (W) 22:20:19 .
BUGSAT 1 29 Jan 22:16:06 22:17:52 13° 91° (E) 22:19:52 437.445
HO-68 29 Jan 22:20:25 22:22:10 11° 273° (W) 22:23:15 435.675
POLYITAN 1 29 Jan 22:21:36 22:24:45 20° 94° (E) 22:28:00 437.675
CUBEBUG 2 29 Jan 22:24:07 22:27:49 22° 267° (W) 22:31:26 437.445
HUMSAT D 29 Jan 22:26:14 22:30:26 48° 261° (W) 22:34:40 437.325/437.525
ZACube-1 29 Jan 22:28:39 22:32:33 26° 265° (W) 22:36:24 437.345
UNISAT 6 29 Jan 22:31:41 22:35:57 47° 99° (E) 22:40:08 437.425
DX 1 29 Jan 22:35:26 22:38:18 17° 267° (W) 22:41:00 434.975-435.025
AIST 1 29 Jan 22:37:45 22:42:07 87° 81° (E) 22:46:30
POPSAT HIP 1 29 Jan 22:40:42 22:44:36 33° 97° (E) 22:48:30 437.405
FUNcube-1 29 Jan 22:41:00 22:44:25 20° 267° (W) 22:47:43 145.935
DUCHIFAT 1 29 Jan 22:42:56 22:46:53 35° 97° (E) 22:50:49 145.980
AISAT 29 Jan 23:02:10 23:05:47 24° 265° (W) 23:09:20 437.250
ESTCUBE 1 29 Jan 23:06:10 23:10:32 52° 260° (W) 23:14:55 437.505/2401.250
ANTELSAT 29 Jan 23:07:39 23:12:03 63° 285° (WNW) 23:16:18 437.575/2403.000
TIGRISAT 29 Jan 23:15:04 23:19:24 52° 285° (WNW) 23:23:36 435.000
NANOSAT C BR1 29 Jan 23:17:24 23:21:44 85° 283° (WNW) 23:26:00 145.865
SPROUT 29 Jan 23:18:21 23:22:23 42° 74° (ENE) 23:26:30 437.525
QB50P2 29 Jan 23:32:13 23:36:27 54° 285° (WNW) 23:40:37 145.880/145.840
VELOX 1 29 Jan 23:32:26 23:34:02 11° 270° (W) 23:35:21 145.980
CUBEBUG 1 29 Jan 23:36:21 23:39:58 25° 265° (W) 23:43:31 437.445
QB50P1 29 Jan 23:41:25 23:45:31 42° 286° (WNW) 23:49:33 145.935-145.965
BUGSAT 1 29 Jan 23:49:33 23:53:40 45° 286° (WNW) 23:57:44 437.445
TISAT 1 29 Jan 23:52:56 23:57:09 73° 258° (WSW) 00:01:26 437.305
POLYITAN 1 29 Jan 23:57:00 00:00:44 28° 288° (WNW) 00:04:22 437.675
GONETS M04 30 Jan 00:06:54 00:13:23 25° 85° (E) 00:20:13
UNISAT 6 30 Jan 00:10:08 00:12:22 13° 293° (WNW) 00:14:22 437.425
POPSAT HIP 1 30 Jan 00:17:21 00:20:18 18° 291° (WNW) 00:23:05 437.405
DUCHIFAT 1 30 Jan 00:19:41 00:22:30 17° 291° (WNW) 00:25:10 145.980
SWISSCUBE 30 Jan 00:36:45 00:41:19 49° 73° (ENE) 00:45:56 437.505
BEESAT 30 Jan 00:52:15 00:56:58 68° 75° (ENE) 01:01:43 436.000
SPROUT 30 Jan 00:56:28 00:58:46 14° 269° (W) 01:00:51 437.525
ITUPSAT 1 30 Jan 00:56:35 01:01:19 74° 76° (ENE) 01:06:06 437.325
KKS-1 30 Jan 01:03:08 01:05:40 16° 68° (ENE) 01:08:24 437.445
O/OREOS (USA 219) 30 Jan 01:08:17 01:11:08 16° 58° (ENE) 01:14:09 437.305
BEESAT 2 30 Jan 01:13:49 01:17:01 23° 112° (ESE) 01:20:20 435.950
BEESAT 3 30 Jan 01:26:32 01:30:17 37° 114° (ESE) 01:34:07 437.485
Gurwin Techsat 1B 30 Jan 01:32:31 01:34:37 13° 89° (E) 01:37:06 435.225
AUBIESAT-1 30 Jan 01:44:51 01:47:06 15° 67° (ENE) 01:49:26 437.475
Oscar 19 30 Jan 01:50:17 01:55:28 87° 279° (W) 02:00:35 437.125/150
GONETS M04 30 Jan 02:01:02 02:09:42 60° 281° (W) 02:18:19
ITAMSAT 1 30 Jan 02:08:11 02:13:11 45° 99° (E) 02:18:12 435.822/435.867
SWISSCUBE 30 Jan 02:16:58 02:19:33 14° 269° (W) 02:21:52 437.505
STARS 30 Jan 02:29:16 02:33:43 85° 257° (WSW) 02:38:12 437.465
PCSat 30 Jan 02:36:56 02:38:18 11° 104° (ESE) 02:40:05 145.827
KKS-1 30 Jan 02:37:44 02:42:00 42° 261° (W) 02:46:17 437.445
M-CUBED/EXP-1 PRIME 30 Jan 02:45:12 02:49:20 79° 253° (WSW) 02:53:09 437.505
O/OREOS (USA 219) 30 Jan 02:46:28 02:50:50 43° 254° (WSW) 02:55:09 437.305
HORYU 2 30 Jan 02:46:41 02:49:52 20° 94° (E) 02:53:11 437.375
AIST 2 30 Jan 02:50:51 02:55:03 69° 300° (WNW) 02:59:20 435.215
BEESAT 2 30 Jan 02:51:35 02:55:08 27° 307° (NW) 02:58:41 435.950
DANDE 30 Jan 03:04:26 03:10:38 26° 86° (E) 03:17:30 436.750
BEESAT 3 30 Jan 03:05:42 03:08:36 18° 311° (NW) 03:11:25 437.485
Gurwin Techsat 1B 30 Jan 03:09:53 03:15:09 65° 286° (WNW) 03:20:24 435.225
AUBIESAT-1 30 Jan 03:18:10 03:21:53 33° 257° (WSW) 03:25:20 437.475
AO-7 30 Jan 03:22:30 03:29:15 28° 95° (E) 03:36:13 29.400- 29.500
CUSAT 1 30 Jan 03:27:32 03:35:01 45° 91° (E) 03:42:56 437.405
RS-15 30 Jan 03:47:51 03:57:42 42° 109° (ESE) 04:07:44 29.354- 29.394
ITAMSAT 1 30 Jan 03:48:40 03:52:23 19° 293° (WNW) 03:55:55 435.822/435.867
ISS 30 Jan 04:07:56 04:11:00 35° 37° (NE) 04:14:05 145.825
PCSat 30 Jan 04:15:46 04:21:10 77° 298° (WNW) 04:26:37 145.827
MOZHAYETS 4 30 Jan 04:22:38 04:27:14 90° 99° (E) 04:31:50
HORYU 2 30 Jan 04:22:41 04:26:38 30° 288° (WNW) 04:30:28 437.375
JAS-2 30 Jan 04:25:16 04:30:46 42° 99° (E) 04:36:59 435.910
DANDE 30 Jan 04:45:27 04:53:30 66° 282° (WNW) 05:02:09 436.750
CUSAT 1 30 Jan 05:10:34 05:18:09 39° 287° (WNW) 05:25:50 437.405
STRAND 1 30 Jan 05:11:28 05:14:29 16° 66° (ENE) 05:17:43 437.568
AO-7 30 Jan 05:14:22 05:22:28 56° 292° (WNW) 05:30:28 29.400- 29.500
ISS 30 Jan 05:45:00 05:47:19 17° 231° (SW) 05:49:33 145.825
PRISM 30 Jan 05:56:23 06:00:30 81° 258° (WSW) 06:04:37 437.425
Cubesat XI-IV 30 Jan 05:58:02 06:02:59 37° 97° (E) 06:07:57 437.490
RS-15 30 Jan 05:59:24 06:09:56 50° 309° (NW) 06:20:29 29.354- 29.394
PCSat 30 Jan 06:04:09 06:05:37 11° 317° (NW) 06:06:46 145.827
JAS-2 30 Jan 06:10:59 06:15:46 26° 290° (WNW) 06:20:49 435.910
YUBILEINY 30 Jan 06:12:36 06:20:50 44° 76° (ENE) 06:29:10 435.215
CUTE-I 30 Jan 06:17:29 06:22:47 57° 100° (E) 06:28:05 437.470
CUBESAT XI-V 30 Jan 06:17:50 06:22:25 74° 258° (WSW) 06:27:02 437.345
DANDE 30 Jan 06:35:03 06:38:50 13° 301° (WNW) 06:41:58 436.750
STRAND 1 30 Jan 06:48:22 06:53:19 51° 260° (W) 06:58:17 437.568
VERMONT LUNAR 30 Jan 06:48:32 06:51:02 19° 145° (SE) 06:53:36 437.305
Cubesat XI-IV 30 Jan 07:38:35 07:42:55 24° 292° (WNW) 07:47:06 437.490
GOMX 1 30 Jan 07:52:13 07:54:38 14° 88° (E) 07:57:18 467.674
PHONESAT 2.4 30 Jan 07:52:50 07:56:06 34° 149° (SSE) 07:59:25 2401.200-2431.200
HO-68 30 Jan 07:58:33 08:03:51 23° 93° (E) 08:09:24 435.675
CUTE-I 30 Jan 07:59:06 08:02:27 16° 294° (WNW) 08:05:34 437.470
BRITE-PL 30 Jan 08:00:39 08:05:15 26° 93° (E) 08:09:47 437.365/2234.400
DOVE 4 30 Jan 08:01:00 08:01:33 10° 86° (E) 08:02:30 437.250
YUBILEINY 30 Jan 08:09:44 08:17:30 35° 273° (W) 08:25:07 435.215
SEEDS 30 Jan 08:16:19 08:18:58 17° 92° (E) 08:21:45 437.485
RS-15 30 Jan 08:19:52 08:26:05 16° 339° (NNW) 08:31:58 29.354- 29.394
VERMONT LUNAR 30 Jan 08:25:25 08:28:53 79° 337° (NNW) 08:32:23 437.305
COMPASS 1 30 Jan 08:40:35 08:44:06 27° 96° (E) 08:47:40 437.405
DELFI C3 30 Jan 08:56:29 08:58:02 12° 91° (E) 08:59:49 145.870
CANX-2 30 Jan 08:57:43 09:01:57 74° 101° (E) 09:06:09 2200.000
AAUSAT CUBESAT 2 30 Jan 09:05:39 09:09:39 48° 99° (E) 09:13:40 437.432
CINEMA 3 30 Jan 09:13:44 09:18:06 36° 96° (E) 09:22:19 145.822/145.860
POLYITAN 1 30 Jan 09:13:54 09:15:03 11° 67° (ENE) 09:16:28 437.675
UWE-3 30 Jan 09:20:05 09:23:07 19° 92° (E) 09:26:14 435.000/436.395/437.385
CUTE 1.7 + AOD 2 30 Jan 09:21:46 09:25:57 61° 284° (WNW) 09:30:05 437.475
Oscar 11 30 Jan 09:27:15 09:31:17 39° 98° (E) 09:35:20 145.826/435.025
UNISAT 6 30 Jan 09:27:31 09:31:36 31° 72° (ENE) 09:35:45 437.425
GOMX 1 30 Jan 09:28:01 09:33:21 61° 285° (WNW) 09:38:21 467.674
PHONESAT 2.4 30 Jan 09:31:03 09:34:36 54° 343° (NNW) 09:38:10 2401.200-2431.200
POPSAT HIP 1 30 Jan 09:31:32 09:34:20 18° 69° (ENE) 09:37:19 437.405
DUCHIFAT 1 30 Jan 09:33:25 09:36:18 18° 70° (ENE) 09:39:20 145.980
DOVE 4 30 Jan 09:34:54 09:40:04 72° 283° (WNW) 09:44:54 437.250
BRITE-PL 30 Jan 09:38:41 09:43:50 36° 289° (WNW) 09:48:40 437.365/2234.400
HO-68 30 Jan 09:45:01 09:52:01 58° 289° (WNW) 09:58:59 435.675
VELOX 1 30 Jan 09:48:36 09:50:38 13° 91° (E) 09:52:56 145.980
BEESAT 3 30 Jan 09:51:06 09:52:03 11° 45° (NE) 09:53:13 437.485
SEEDS 30 Jan 09:51:10 09:54:55 32° 287° (WNW) 09:58:36 437.485
SO-50 30 Jan 09:59:47 10:04:18 88° 120° (ESE) 10:09:00 436.795
ANTELSAT 30 Jan 10:02:54 10:07:36 77° 77° (ENE) 10:12:19 437.575/2403.000
UKube-1 30 Jan 10:03:06 10:07:23 55° 100° (E) 10:11:41 .
VERMONT LUNAR 30 Jan 10:04:05 10:07:17 33° 355° (N) 10:10:30 437.305
NANOSAT C BR1 30 Jan 10:06:58 10:11:02 46° 74° (ENE) 10:15:10 145.865
TIGRISAT 30 Jan 10:09:55 10:14:39 89° 67° (ENE) 10:19:23 435.000
HUMSAT D 30 Jan 10:14:20 10:18:09 33° 97° (E) 10:21:57 437.325/437.525
COMPASS 1 30 Jan 10:16:36 10:19:42 20° 289° (WNW) 10:22:41 437.405
CUBEBUG 2 30 Jan 10:17:52 10:22:24 74° 284° (WNW) 10:26:45 437.445
ZACube-1 30 Jan 10:20:15 10:24:41 80° 101° (ESE) 10:28:57 437.345
QB50P2 30 Jan 10:21:46 10:26:01 73° 77° (ENE) 10:30:21 145.880/145.840
DX 1 30 Jan 10:25:16 10:29:41 76° 284° (WNW) 10:34:03 434.975-435.025
DELFI C3 30 Jan 10:29:44 10:33:32 40° 286° (WNW) 10:37:19 145.870
QB50P1 30 Jan 10:30:40 10:34:56 89° 257° (WSW) 10:39:15 145.935-145.965
FUNcube-1 30 Jan 10:31:50 10:36:14 75° 283° (WNW) 10:40:29 145.935
BUGSAT 1 30 Jan 10:36:18 10:40:22 80° 77° (ENE) 10:44:32 437.445
RS-15 30 Jan 10:40:13 10:45:12 14° 16° (NNE) 10:50:39 29.354- 29.394
AAUSAT CUBESAT 2 30 Jan 10:43:21 10:44:58 12° 292° (WNW) 10:46:20 437.432
POLYITAN 1 30 Jan 10:46:21 10:50:34 56° 260° (W) 10:54:50 437.675
CINEMA 3 30 Jan 10:51:35 10:55:04 20° 292° (WNW) 10:58:18 145.822/145.860
AISAT 30 Jan 10:55:25 10:59:58 85° 103° (ESE) 11:04:28 437.250
UWE-3 30 Jan 10:55:49 10:59:48 32° 288° (WNW) 11:03:37 435.000/436.395/437.385
ESTCUBE 1 30 Jan 11:02:15 11:06:32 41° 99° (E) 11:10:49 437.505/2401.250
AIST 1 30 Jan 11:03:55 11:08:06 60° 94° (E) 11:12:18
Oscar 11 30 Jan 11:04:38 11:07:11 15° 291° (WNW) 11:09:34 145.826/435.025
UNISAT 6 30 Jan 11:04:39 11:08:26 23° 266° (W) 11:12:05 437.425
POPSAT HIP 1 30 Jan 11:06:10 11:10:02 33° 263° (W) 11:13:55 437.405
DUCHIFAT 1 30 Jan 11:08:09 11:11:58 31° 263° (W) 11:15:47 145.980
PHONESAT 2.4 30 Jan 11:10:15 11:13:34 33° 0° (N) 11:16:54 2401.200-2431.200
BEESAT 2 30 Jan 11:13:44 11:17:54 68° 60° (ENE) 11:21:59 435.950
50 SAT 30 Jan 11:14:49 11:18:47 55° 285° (WNW) 11:22:40 437.505
AIST 2 30 Jan 11:16:11 11:19:55 29° 53° (NE) 11:23:38 435.215
VELOX 1 30 Jan 11:23:13 11:27:32 47° 286° (WNW) 11:31:49 145.980
BEESAT 3 30 Jan 11:26:37 11:30:46 73° 243° (WSW) 11:34:49 437.485
CUBEBUG 1 30 Jan 11:27:39 11:32:07 76° 101° (ESE) 11:36:34 437.445
Oscar 19 30 Jan 11:29:29 11:30:10 10° 64° (ENE) 11:31:13 437.125/150
UKube-1 30 Jan 11:41:33 11:43:09 12° 294° (WNW) 11:44:29 .
TISAT 1 30 Jan 11:41:50 11:45:11 22° 95° (E) 11:48:36 437.305
VERMONT LUNAR 30 Jan 11:42:30 11:45:50 40° 12° (NNE) 11:49:11 437.305
SO-50 30 Jan 11:44:03 11:45:38 11° 318° (NW) 11:47:01 436.795
NANOSAT C BR1 30 Jan 11:45:23 11:47:14 12° 270° (W) 11:48:50 145.865
HUMSAT D 30 Jan 11:50:58 11:53:43 17° 291° (WNW) 11:56:18 437.325/437.525
GONETS M04 30 Jan 12:15:14 12:23:46 59° 79° (E) 12:32:20
ESTCUBE 1 30 Jan 12:40:13 12:43:07 16° 292° (WNW) 12:45:51 437.505/2401.250
SWISSCUBE 30 Jan 12:41:39 12:44:37 17° 92° (E) 12:47:47 437.505
SPROUT 30 Jan 12:44:09 12:48:27 60° 285° (WNW) 12:52:42 437.525
PHONESAT 2.4 30 Jan 12:48:57 12:52:32 55° 17° (NNE) 12:56:07 2401.200-2431.200
Gurwin Techsat 1B 30 Jan 12:50:21 12:53:23 16° 66° (ENE) 12:56:40 435.225
RS-15 30 Jan 12:51:46 13:02:10 40° 47° (NE) 13:13:10 29.354- 29.394
AIST 2 30 Jan 12:55:04 12:58:24 22° 249° (WSW) 13:01:36 435.215
BEESAT 30 Jan 12:56:37 13:00:18 23° 94° (E) 13:04:06 436.000
ITUPSAT 1 30 Jan 13:01:11 13:05:03 25° 95° (E) 13:09:02 437.325
Oscar 19 30 Jan 13:03:43 13:08:55 84° 256° (WSW) 13:14:09 437.125/150
PCSat 30 Jan 13:07:06 13:12:14 42° 58° (ENE) 13:17:22 145.827
TISAT 1 30 Jan 13:17:24 13:20:59 25° 289° (WNW) 13:24:28 437.305
VERMONT LUNAR 30 Jan 13:20:35 13:24:03 58° 208° (SSW) 13:27:31 437.305
ITAMSAT 1 30 Jan 13:22:58 13:27:56 50° 73° (ENE) 13:32:57 435.822/435.867
HORYU 2 30 Jan 13:43:20 13:45:27 14° 67° (ENE) 13:47:48 437.375
DANDE 30 Jan 13:55:54 13:57:04 11° 56° (ENE) 13:58:32 436.750
GONETS M04 30 Jan 14:13:17 14:20:06 25° 275° (W) 14:26:34
CUSAT 1 30 Jan 14:15:42 14:19:34 19° 63° (ENE) 14:22:57 437.405
SWISSCUBE 30 Jan 14:18:12 14:22:43 42° 287° (WNW) 14:27:12 437.505
AO-7 30 Jan 14:18:12 14:25:05 31° 62° (ENE) 14:32:11 29.400- 29.500
STARS 30 Jan 14:23:19 14:26:48 23° 95° (E) 14:30:21 437.465
PHONESAT 2.4 30 Jan 14:27:42 14:31:01 33° 212° (SSW) 14:34:20 2401.200-2431.200
Gurwin Techsat 1B 30 Jan 14:27:44 14:32:57 57° 260° (W) 14:38:11 435.225
KKS-1 30 Jan 14:32:08 14:36:27 46° 99° (E) 14:40:45 437.445
BEESAT 30 Jan 14:33:58 14:38:13 31° 289° (WNW) 14:42:22 436.000
ITUPSAT 1 30 Jan 14:38:49 14:42:58 29° 289° (WNW) 14:47:02 437.325
PCSat 30 Jan 14:51:14 14:55:24 22° 253° (WSW) 14:59:24 145.827
AUBIESAT-1 30 Jan 15:03:16 15:05:26 16° 100° (E) 15:07:46 437.475
RS-15 30 Jan 15:03:57 15:15:08 59° 247° (WSW) 15:26:42 29.354- 29.394
ITAMSAT 1 30 Jan 15:04:29 15:07:47 16° 268° (W) 15:10:52 435.822/435.867
O/OREOS (USA 219) 30 Jan 15:16:31 15:20:25 31° 104° (ESE) 15:24:25 437.305
HORYU 2 30 Jan 15:17:23 15:21:46 49° 260° (W) 15:26:08 437.375
DANDE 30 Jan 15:35:51 15:42:06 81° 262° (W) 15:46:36 436.750
JUGNU 30 Jan 15:45:03 15:46:22 11° 166° (SSE) 15:47:49 437.505
CUSAT 1 30 Jan 15:57:54 16:03:03 36° 271° (W) 16:06:56 437.405
STARS 30 Jan 15:59:30 16:03:16 27° 289° (WNW) 16:06:57 437.465
M-CUBED/EXP-1 PRIME 30 Jan 16:05:11 16:08:27 50° 289° (WNW) 16:11:50 437.505
AO-7 30 Jan 16:09:21 16:17:32 56° 258° (WSW) 16:25:42 29.400- 29.500
KKS-1 30 Jan 16:10:15 16:12:46 14° 293° (WNW) 16:15:03 437.445
JAS-2 30 Jan 16:19:30 16:25:06 86° 255° (WSW) 16:30:21 435.910
MOZHAYETS 4 30 Jan 16:21:39 16:25:30 27° 95° (E) 16:29:24
AUBIESAT-1 30 Jan 16:37:46 16:40:23 21° 292° (WNW) 16:43:02 437.475
O/OREOS (USA 219) 30 Jan 16:56:28 16:59:55 21° 300° (WNW) 17:03:17 437.305
Cubesat XI-IV 30 Jan 17:16:54 17:21:54 45° 72° (ENE) 17:26:59 437.490
JUGNU 30 Jan 17:30:58 17:34:40 17° 175° (S) 17:38:26 437.505
CUTE-I 30 Jan 17:36:09 17:41:24 68° 75° (ENE) 17:46:44 437.470
PRISM 30 Jan 17:43:29 17:46:17 18° 94° (E) 17:49:14 437.425
MOZHAYETS 4 30 Jan 17:58:57 18:02:40 24° 289° (WNW) 18:06:16
SRMSAT 30 Jan 18:14:35 18:17:50 15° 171° (S) 18:21:09 437.500
CUBESAT XI-V 30 Jan 18:18:06 18:22:24 35° 97° (E) 18:26:44 437.345
HO-68 30 Jan 18:27:02 18:29:37 13° 58° (ENE) 18:32:40 435.675
SO-50 30 Jan 18:34:31 18:38:59 34° 53° (NE) 18:43:30 436.795
GOMX 1 30 Jan 18:58:22 18:59:39 11° 64° (ENE) 19:01:18 467.674
Cubesat XI-IV 30 Jan 18:58:27 19:02:17 19° 268° (W) 19:05:55 437.490
STRAND 1 30 Jan 19:02:00 19:07:09 70° 102° (ESE) 19:12:17 437.568
BRITE-PL 30 Jan 19:08:27 19:12:09 21° 67° (ENE) 19:16:11 437.365/2234.400
YUBILEINY 30 Jan 19:09:05 19:17:27 56° 91° (E) 19:25:54 435.215
PRISM 30 Jan 19:18:14 19:21:53 30° 288° (WNW) 19:25:30 437.425
JUGNU 30 Jan 19:19:15 19:23:00 17° 185° (S) 19:26:46 437.505
CUTE-I 30 Jan 19:19:55 19:22:05 12° 271° (W) 19:23:55 437.470
COMPASS 1 30 Jan 19:30:35 19:32:35 14° 69° (ENE) 19:34:47 437.405
CANX-2 30 Jan 19:47:44 19:51:38 34° 73° (ENE) 19:55:33 2200.000
AAUSAT CUBESAT 2 30 Jan 19:54:17 19:57:31 22° 71° (ENE) 20:00:50 437.432
CUBESAT XI-V 30 Jan 19:56:11 19:59:38 20° 291° (WNW) 20:02:57 437.345
SRMSAT 30 Jan 20:02:20 20:06:20 18° 180° (S) 20:10:19 437.500
HO-68 30 Jan 20:09:15 20:16:23 78° 73° (ENE) 20:23:33 435.675
CUTE 1.7 + AOD 2 30 Jan 20:11:16 20:15:30 61° 76° (ENE) 20:19:45 437.475
CINEMA 3 30 Jan 20:12:14 20:16:12 25° 70° (ENE) 20:20:20 145.822/145.860
SO-50 30 Jan 20:15:22 20:19:26 25° 248° (WSW) 20:23:23 436.795
UWE-3 30 Jan 20:15:33 20:17:21 12° 67° (ENE) 20:19:24 435.000/436.395/437.385
Oscar 11 30 Jan 20:19:34 20:22:50 22° 71° (ENE) 20:26:12 145.826/435.025
GOMX 1 30 Jan 20:32:00 20:37:02 82° 258° (WSW) 20:42:26 467.674
DOVE 4 30 Jan 20:36:24 20:41:26 80° 75° (ENE) 20:46:43 437.250
SEEDS 30 Jan 20:39:34 20:43:49 71° 259° (W) 20:48:04 437.485
STRAND 1 30 Jan 20:43:34 20:45:50 13° 295° (WNW) 20:47:49 437.568
ISS 30 Jan 20:45:11 20:48:25 67° 136° (SE) 20:51:41 145.825
BRITE-PL 30 Jan 20:45:35 20:50:19 42° 264° (W) 20:55:24 437.365/2234.400
UKube-1 30 Jan 20:55:18 20:59:05 31° 72° (ENE) 21:02:57 .
COMPASS 1 30 Jan 21:03:57 21:07:59 43° 262° (W) 21:12:01 437.405
HUMSAT D 30 Jan 21:04:10 21:07:00 18° 69° (ENE) 21:09:59 437.325/437.525
JUGNU 30 Jan 21:09:48 21:11:20 11° 194° (SSW) 21:12:45 437.505
AIST 1 30 Jan 21:16:53 21:18:04 11° 70° (ENE) 21:19:32
